| time (UTC) | temp C | wind direction | speed KPH | gust KPH | rain 1hr cm | rain 24hr cm | rain mn cm | humidity % | barometer mb |
| 20260502163912 | 19 | 84 | 1.6 | 12.9 | 0.00 | 0.00 | 0.00 | 71 | 1016.2 |
| 20260502162407 | 19 | 133 | 3.2 | 9.7 | 0.00 | 0.00 | 0.00 | 72 | 1016.3 |
| 20260502161908 | 19 | 142 | 8.0 | 14.5 | 0.00 | 0.00 | 0.00 | 73 | 1016.4 |
| 20260502161407 | 18 | 152 | 4.8 | 12.9 | 0.00 | 0.00 | 0.00 | 75 | 1016.3 |
| 20260502160907 | 18 | 98 | 1.6 | 9.7 | 0.00 | 0.00 | 0.00 | 78 | 1016.4 |
| 20260502160407 | 18 | 124 | 1.6 | 12.9 | 0.00 | 0.00 | 0.00 | 77 | 1016.4 |
| 20260502151907 | 17 | 135 | 8.0 | 14.5 | 0.00 | 0.00 | 0.00 | 82 | 1017.0 |
| 20260502151406 | 18 | 124 | 8.0 | 11.3 | 0.00 | 0.00 | 0.00 | 79 | 1017.0 |
| 20260502150906 | 18 | 120 | 4.8 | 14.5 | 0.00 | 0.00 | 0.00 | 77 | 1017.1 |
| 20260502150406 | 18 | 126 | 8.0 | 12.9 | 0.00 | 0.00 | 0.00 | 75 | 1017.1 |
| 20260502130407 | 19 | 82 | 9.7 | 19.3 | 0.00 | 0.00 | 0.00 | 66 | 1017.8 |
| 20260502123407 | 20 | 86 | 4.8 | 19.3 | 0.00 | 0.00 | 0.00 | 60 | 1017.7 |
| 20260502122906 | 20 | 93 | 9.7 | 16.1 | 0.00 | 0.00 | 0.00 | 59 | 1017.8 |
| 20260502121407 | 20 | 116 | 8.0 | 16.1 | 0.00 | 0.00 | 0.00 | 57 | 1017.8 |
| 20260502120906 | 20 | 113 | 8.0 | 19.3 | 0.00 | 0.00 | 0.00 | 57 | 1017.8 |
| 20260502120407 | 20 | 91 | 4.8 | 11.3 | 0.00 | 0.00 | 0.00 | 58 | 1017.9 |
| 20260502115406 | 20 | 94 | 4.8 | 11.3 | 0.00 | 0.00 | 0.00 | 56 | 1018.0 |
| 20260502113406 | 20 | 61 | 4.8 | 14.5 | 0.00 | 0.00 | 0.00 | 54 | 1018.2 |
| 20260502112906 | 20 | 93 | 3.2 | 9.7 | 0.00 | 0.00 | 0.00 | 56 | 1018.1 |
| 20260502112406 | 20 | 127 | 6.4 | 11.3 | 0.00 | 0.00 | 0.00 | 55 | 1018.1 |
| 20260502111906 | 20 | 46 | 0.0 | 1.6 | 0.00 | 0.00 | 0.00 | 55 | 1018.1 |
| 20260502111406 | 20 | 45 | 9.7 | 16.1 | 0.00 | 0.00 | 0.00 | 54 | 1018.2 |
| 20260502110906 | 20 | 110 | 11.3 | 16.1 | 0.00 | 0.00 | 0.00 | 55 | 1018.3 |
| 20260502110406 | 20 | 107 | 4.8 | 14.5 | 0.00 | 0.00 | 0.00 | 57 | 1018.3 |
| 20260502105906 | 20 | 53 | 3.2 | 9.7 | 0.00 | 0.00 | 0.00 | 57 | 1018.3 |
| 20260502105406 | 20 | 47 | 4.8 | 12.9 | 0.00 | 0.00 | 0.00 | 58 | 1018.3 |
| 20260502104907 | 19 | 55 | 8.0 | 14.5 | 0.00 | 0.00 | 0.00 | 58 | 1018.2 |
| 20260502104407 | 19 | 40 | 1.6 | 11.3 | 0.00 | 0.00 | 0.00 | 57 | 1018.3 |
| 20260502103906 | 19 | 83 | 4.8 | 12.9 | 0.00 | 0.00 | 0.00 | 58 | 1018.3 |
| 20260502103406 | 19 | 49 | 1.6 | 9.7 | 0.00 | 0.00 | 0.00 | 57 | 1018.3 |
| 20260502102906 | 20 | 91 | 4.8 | 14.5 | 0.00 | 0.00 | 0.00 | 57 | 1018.4 |
| 20260502102407 | 19 | 86 | 8.0 | 12.9 | 0.00 | 0.00 | 0.00 | 58 | 1018.3 |
| 20260502101906 | 19 | 79 | 8.0 | 12.9 | 0.00 | 0.00 | 0.00 | 57 | 1018.4 |
| 20260502101406 | 19 | 63 | 1.6 | 14.5 | 0.00 | 0.00 | 0.00 | 58 | 1018.3 |
| 20260502100907 | 19 | 125 | 4.8 | 12.9 | 0.00 | 0.00 | 0.00 | 59 | 1018.3 |
| 20260502100406 | 18 | 288 | 0.0 | 1.6 | 0.00 | 0.00 | 0.00 | 63 | 1018.3 |
| 20260502090906 | 17 | 107 | 1.6 | 4.8 | 0.00 | 0.00 | 0.00 | 73 | 1018.4 |
| 20260502071406 | 13 | 325 | 0.0 | 1.6 | 0.00 | 0.00 | 0.00 | 86 | 1018.3 |
| 20260502070906 | 13 | 325 | 0.0 | 0.0 | 0.00 | 0.00 | 0.00 | 86 | 1018.4 |
| 20260502070406 | 13 | 325 | 0.0 | 0.0 | 0.00 | 0.00 | 0.00 | 86 | 1018.3 |
| 20260502065907 | 13 | 325 | 0.0 | 3.2 | 0.00 | 0.00 | 0.00 | 87 | 1018.3 |
| 20260502065405 | 13 | 325 | 0.0 | 0.0 | 0.00 | 0.00 | 0.00 | 88 | 1018.2 |
| 20260502064907 | 13 | 325 | 0.0 | 0.0 | 0.00 | 0.00 | 0.00 | 88 | 1018.2 |
| 20260502064406 | 13 | 325 | 0.0 | 0.0 | 0.00 | 0.00 | 0.00 | 88 | 1018.2 |
| 20260502063906 | 13 | 325 | 0.0 | 0.0 | 0.00 | 0.00 | 0.00 | 87 | 1018.3 |
| 20260502062906 | 13 | 325 | 0.0 | 0.0 | 0.00 | 0.00 | 0.00 | 87 | 1018.1 |
| 20260502062406 | 13 | 325 | 0.0 | 4.8 | 0.00 | 0.00 | 0.00 | 86 | 1018.1 |
| 20260502061406 | 13 | 324 | 0.0 | 3.2 | 0.00 | 0.00 | 0.00 | 86 | 1017.9 |
| 20260502060406 | 13 | 324 | 0.0 | 0.0 | 0.00 | 0.00 | 0.00 | 86 | 1017.6 |
| 20260502055406 | 13 | 324 | 0.0 | 1.6 | 0.00 | 0.00 | 0.00 | 87 | 1017.7 |
| 20260502054906 | 13 | 324 | 0.0 | 0.0 | 0.00 | 0.00 | 0.00 | 87 | 1017.6 |
| 20260502054405 | 13 | 324 | 0.0 | 0.0 | 0.00 | 0.00 | 0.00 | 88 | 1017.6 |
| 20260502053906 | 13 | 324 | 0.0 | 0.0 | 0.00 | 0.00 | 0.00 | 88 | 1017.6 |
| 20260502053406 | 13 | 324 | 0.0 | 0.0 | 0.00 | 0.00 | 0.00 | 88 | 1017.7 |
| 20260502052906 | 13 | 324 | 0.0 | 0.0 | 0.00 | 0.00 | 0.00 | 88 | 1017.8 |
| 20260502052406 | 13 | 324 | 0.0 | 0.0 | 0.00 | 0.00 | 0.00 | 88 | 1017.9 |
| 20260502050906 | 13 | 324 | 3.2 | 4.8 | 0.00 | 0.00 | 0.00 | 85 | 1017.7 |
| 20260502045406 | 13 | 244 | 4.8 | 9.7 | 0.00 | 0.00 | 0.00 | 84 | 1017.6 |
| 20260502044906 | 13 | 284 | 3.2 | 4.8 | 0.00 | 0.00 | 0.00 | 83 | 1017.7 |
| 20260502044406 | 13 | 199 | 0.0 | 0.0 | 0.00 | 0.00 | 0.00 | 84 | 1017.9 |
| 20260502043906 | 13 | 199 | 0.0 | 3.2 | 0.00 | 0.00 | 0.00 | 84 | 1018.0 |
| 20260502043406 | 13 | 199 | 3.2 | 4.8 | 0.00 | 0.00 | 0.00 | 83 | 1017.9 |
| 20260502042906 | 13 | 195 | 3.2 | 8.0 | 0.00 | 0.00 | 0.00 | 83 | 1017.9 |
| 20260502040906 | 13 | 92 | 1.6 | 4.8 | 0.00 | 0.00 | 0.00 | 84 | 1018.3 |
| 20260502040406 | 13 | 92 | 0.0 | 1.6 | 0.00 | 0.00 | 0.00 | 84 | 1018.1 |
| 20260502035907 | 13 | 92 | 0.0 | 0.0 | 0.00 | 0.00 | 0.00 | 85 | 1018.1 |
| 20260502035408 | 13 | 92 | 0.0 | 0.0 | 0.00 | 0.00 | 0.00 | 85 | 1018.1 |
| 20260502034906 | 13 | 92 | 0.0 | 0.0 | 0.00 | 0.00 | 0.00 | 84 | 1018.2 |
| 20260502034406 | 13 | 92 | 0.0 | 0.0 | 0.00 | 0.00 | 0.00 | 84 | 1018.3 |
| 20260502033406 | 13 | 26 | 4.8 | 9.7 | 0.00 | 0.00 | 0.00 | 83 | 1018.3 |
| 20260502032906 | 13 | 144 | 1.6 | 8.0 | 0.00 | 0.00 | 0.00 | 83 | 1018.1 |
| 20260502032407 | 13 | 144 | 1.6 | 4.8 | 0.00 | 0.00 | 0.00 | 83 | 1018.0 |
| 20260502030406 | 14 | 144 | 1.6 | 4.8 | 0.00 | 0.00 | 0.00 | 82 | 1018.2 |
| 20260502024406 | 14 | 36 | 0.0 | 0.0 | 0.00 | 0.00 | 0.00 | 81 | 1018.1 |
| 20260502023906 | 14 | 36 | 3.2 | 9.7 | 0.00 | 0.00 | 0.00 | 81 | 1018.4 |
| 20260502023406 | 14 | 102 | 3.2 | 12.9 | 0.00 | 0.00 | 0.00 | 81 | 1018.2 |
| 20260502022406 | 14 | 45 | 0.0 | 8.0 | 0.00 | 0.00 | 0.00 | 81 | 1018.2 |
| 20260502021905 | 14 | 40 | 0.0 | 8.0 | 0.00 | 0.00 | 0.00 | 80 | 1018.5 |
| 20260502021406 | 14 | 140 | 0.0 | 0.0 | 0.00 | 0.00 | 0.00 | 80 | 1018.5 |
| 20260502020406 | 15 | 140 | 0.0 | 4.8 | 0.00 | 0.00 | 0.00 | 79 | 1018.2 |
| 20260502015906 | 15 | 140 | 0.0 | 0.0 | 0.00 | 0.00 | 0.00 | 80 | 1018.3 |
| 20260502015406 | 14 | 140 | 3.2 | 8.0 | 0.00 | 0.00 | 0.00 | 80 | 1018.3 |
| 20260502014906 | 14 | 140 | 0.0 | 11.3 | 0.00 | 0.00 | 0.00 | 81 | 1018.5 |
| 20260502013906 | 14 | 101 | 1.6 | 8.0 | 0.00 | 0.00 | 0.00 | 81 | 1018.7 |
| 20260502013406 | 14 | 101 | 0.0 | 9.7 | 0.00 | 0.00 | 0.00 | 80 | 1018.8 |
| 20260502012906 | 15 | 101 | 1.6 | 8.0 | 0.00 | 0.00 | 0.00 | 80 | 1018.8 |
| 20260502012406 | 15 | 101 | 1.6 | 8.0 | 0.00 | 0.00 | 0.00 | 80 | 1018.7 |
| 20260502011906 | 15 | 101 | 0.0 | 3.2 | 0.00 | 0.00 | 0.00 | 80 | 1018.6 |
| 20260502011406 | 15 | 101 | 3.2 | 8.0 | 0.00 | 0.00 | 0.00 | 80 | 1018.8 |
| 20260502010906 | 15 | 103 | 4.8 | 9.7 | 0.00 | 0.00 | 0.00 | 80 | 1018.8 |
| 20260502010406 | 15 | 126 | 0.0 | 11.3 | 0.00 | 0.00 | 0.00 | 80 | 1018.8 |
| 20260502005406 | 15 | 92 | 1.6 | 9.7 | 0.00 | 0.00 | 0.00 | 80 | 1018.9 |
| 20260502003906 | 15 | 98 | 3.2 | 9.7 | 0.00 | 0.00 | 0.00 | 79 | 1019.2 |
| 20260502002905 | 15 | 107 | 0.0 | 3.2 | 0.00 | 0.00 | 0.00 | 79 | 1019.1 |
| 20260502001906 | 15 | 123 | 0.0 | 0.0 | 0.00 | 0.00 | 0.00 | 79 | 1019.1 |
| 20260502001405 | 15 | 123 | 1.6 | 4.8 | 0.00 | 0.00 | 0.00 | 79 | 1019.4 |
| 20260502000906 | 15 | 80 | 4.8 | 9.7 | 0.00 | 0.00 | 0.00 | 79 | 1019.5 |
| 20260502000406 | 15 | 84 | 0.0 | 3.2 | 0.00 | 0.00 | 0.00 | 78 | 1019.4 |
| 20260501235905 | 15 | 68 | 0.0 | 0.0 | 0.00 | 0.00 | 0.00 | 78 | 1019.2 |
| 20260501235406 | 15 | 68 | 0.0 | 3.2 | 0.00 | 0.00 | 0.00 | 78 | 1019.6 |
| 20260501234906 | 15 | 68 | 3.2 | 8.0 | 0.00 | 0.00 | 0.00 | 77 | 1019.5 |
| 20260501233906 | 15 | 136 | 0.0 | 0.0 | 0.00 | 0.00 | 0.00 | 76 | 1019.5 |
| 20260501232906 | 15 | 136 | 0.0 | 0.0 | 0.00 | 0.00 | 0.00 | 75 | 1019.6 |
| 20260501232406 | 15 | 136 | 0.0 | 0.0 | 0.00 | 0.00 | 0.00 | 74 | 1019.5 |
| 20260501231906 | 15 | 136 | 0.0 | 0.0 | 0.00 | 0.00 | 0.00 | 73 | 1019.5 |
| 20260501230406 | 16 | 136 | 0.0 | 0.0 | 0.00 | 0.00 | 0.00 | 72 | 1019.4 |
| 20260501225906 | 16 | 136 | 1.6 | 8.0 | 0.00 | 0.00 | 0.00 | 72 | 1019.5 |
| 20260501225406 | 16 | 136 | 0.0 | 4.8 | 0.00 | 0.00 | 0.00 | 72 | 1019.5 |
| 20260501224906 | 16 | 136 | 3.2 | 9.7 | 0.00 | 0.00 | 0.00 | 71 | 1019.6 |
| 20260501224406 | 16 | 136 | 1.6 | 8.0 | 0.00 | 0.00 | 0.00 | 71 | 1019.5 |
| 20260501223906 | 16 | 121 | 1.6 | 8.0 | 0.00 | 0.00 | 0.00 | 71 | 1019.6 |
| 20260501223406 | 16 | 63 | 1.6 | 12.9 | 0.00 | 0.00 | 0.00 | 71 | 1019.6 |
| 20260501222906 | 16 | 132 | 4.8 | 14.5 | 0.00 | 0.00 | 0.00 | 70 | 1019.6 |
| 20260501221906 | 16 | 161 | 0.0 | 8.0 | 0.00 | 0.00 | 0.00 | 69 | 1019.4 |
| 20260501221406 | 16 | 130 | 1.6 | 11.3 | 0.00 | 0.00 | 0.00 | 69 | 1019.6 |
| 20260501220907 | 16 | 122 | 4.8 | 12.9 | 0.00 | 0.00 | 0.00 | 69 | 1019.6 |
| 20260501220406 | 16 | 129 | 4.8 | 9.7 | 0.00 | 0.00 | 0.00 | 68 | 1019.4 |
| 20260501215906 | 16 | 127 | 0.0 | 0.0 | 0.00 | 0.00 | 0.00 | 68 | 1019.4 |
| 20260501215405 | 16 | 100 | 0.0 | 8.0 | 0.00 | 0.00 | 0.00 | 68 | 1019.3 |
| 20260501214406 | 16 | 130 | 0.0 | 9.7 | 0.00 | 0.00 | 0.00 | 69 | 1019.4 |
| 20260501213906 | 16 | 91 | 4.8 | 11.3 | 0.00 | 0.00 | 0.00 | 69 | 1019.5 |
| 20260501213406 | 16 | 153 | 1.6 | 11.3 | 0.00 | 0.00 | 0.00 | 69 | 1019.3 |
| 20260501212906 | 16 | 90 | 1.6 | 14.5 | 0.00 | 0.00 | 0.00 | 69 | 1019.5 |
| 20260501212406 | 16 | 104 | 3.2 | 9.7 | 0.00 | 0.00 | 0.00 | 69 | 1019.3 |
| 20260501211906 | 16 | 161 | 0.0 | 14.5 | 0.00 | 0.00 | 0.00 | 69 | 1019.3 |
| 20260501211406 | 16 | 176 | 3.2 | 9.7 | 0.00 | 0.00 | 0.00 | 69 | 1019.4 |
| 20260501210906 | 16 | 61 | 1.6 | 12.9 | 0.00 | 0.00 | 0.00 | 69 | 1019.5 |
| 20260501205906 | 16 | 155 | 4.8 | 16.1 | 0.00 | 0.00 | 0.00 | 68 | 1019.4 |
| 20260501205406 | 17 | 140 | 1.6 | 11.3 | 0.00 | 0.00 | 0.00 | 67 | 1019.5 |
| 20260501203906 | 17 | 133 | 1.6 | 14.5 | 0.00 | 0.00 | 0.00 | 66 | 1019.3 |
| 20260501203405 | 17 | 167 | 3.2 | 9.7 | 0.00 | 0.00 | 0.00 | 65 | 1019.3 |
| 20260501202905 | 17 | 148 | 4.8 | 16.1 | 0.00 | 0.00 | 0.00 | 64 | 1019.2 |
| 20260501202406 | 17 | 167 | 3.2 | 12.9 | 0.00 | 0.00 | 0.00 | 64 | 1019.1 |
| 20260501201905 | 17 | 153 | 6.4 | 16.1 | 0.00 | 0.00 | 0.00 | 64 | 1019.1 |
| 20260501201406 | 17 | 145 | 8.0 | 14.5 | 0.00 | 0.00 | 0.00 | 64 | 1019.1 |
| 20260501200906 | 17 | 144 | 9.7 | 20.9 | 0.00 | 0.00 | 0.00 | 64 | 1019.1 |
| 20260501195406 | 18 | 143 | 3.2 | 14.5 | 0.00 | 0.00 | 0.00 | 63 | 1018.7 |
| 20260501194405 | 18 | 165 | 8.0 | 16.1 | 0.00 | 0.00 | 0.00 | 63 | 1018.7 |
| 20260501193905 | 18 | 132 | 3.2 | 14.5 | 0.00 | 0.00 | 0.00 | 63 | 1018.6 |
| 20260501193405 | 19 | 110 | 4.8 | 14.5 | 0.00 | 0.00 | 0.00 | 63 | 1018.6 |
| 20260501192906 | 19 | 176 | 6.4 | 19.3 | 0.00 | 0.00 | 0.00 | 63 | 1018.5 |
| 20260501192405 | 19 | 99 | 6.4 | 19.3 | 0.00 | 0.00 | 0.00 | 63 | 1018.5 |
| 20260501190906 | 20 | 59 | 8.0 | 11.3 | 0.00 | 0.00 | 0.00 | 61 | 1018.3 |
| 20260501185405 | 21 | 101 | 9.7 | 14.5 | 0.00 | 0.00 | 0.00 | 55 | 1018.1 |
| 20260501184906 | 21 | 128 | 8.0 | 14.5 | 0.00 | 0.00 | 0.00 | 52 | 1018.1 |
| 20260501184405 | 21 | 78 | 3.2 | 4.8 | 0.00 | 0.00 | 0.00 | 51 | 1018.0 |
| 20260501183906 | 21 | 103 | 0.0 | 4.8 | 0.00 | 0.00 | 0.00 | 51 | 1018.0 |
| 20260501182906 | 22 | 86 | 3.2 | 9.7 | 0.00 | 0.00 | 0.00 | 50 | 1018.0 |
| 20260501182405 | 22 | 127 | 6.4 | 12.9 | 0.00 | 0.00 | 0.00 | 49 | 1017.9 |
| 20260501181906 | 22 | 115 | 1.6 | 9.7 | 0.00 | 0.00 | 0.00 | 49 | 1017.9 |
| 20260501181405 | 22 | 128 | 3.2 | 11.3 | 0.00 | 0.00 | 0.00 | 48 | 1017.9 |
| 20260501180906 | 22 | 97 | 4.8 | 14.5 | 0.00 | 0.00 | 0.00 | 49 | 1018.0 |
| 20260501180405 | 22 | 155 | 8.0 | 14.5 | 0.00 | 0.00 | 0.00 | 48 | 1017.9 |
| 20260501175906 | 22 | 86 | 3.2 | 11.3 | 0.00 | 0.00 | 0.00 | 48 | 1017.9 |
| 20260501175406 | 22 | 69 | 9.7 | 20.9 | 0.00 | 0.00 | 0.00 | 48 | 1017.9 |
| 20260501174905 | 22 | 72 | 6.4 | 12.9 | 0.00 | 0.00 | 0.00 | 47 | 1017.9 |
| 20260501174405 | 23 | 64 | 3.2 | 11.3 | 0.00 | 0.00 | 0.00 | 47 | 1017.9 |
| 20260501173906 | 23 | 79 | 1.6 | 12.9 | 0.00 | 0.00 | 0.00 | 46 | 1017.9 |